Hourly Data Report for June 06, 2021

WRIGLEY A
NORTHWEST TERRITORIES
Current Station Operator: NAVCAN

63°12'35.000" N
123°26'12.000" W
149.70 m
2204005
YWY

Download Data

Hourly Data (June 2021)
Hourly Data Report for June 6, 2021
TIME
LST
Temp Definition
°C
Dew Point Definition
°C
Rel Hum Definition
%
Precip. Amount Definition
mm

Wind Dir Definition
10's deg

Wind Spd Definition
km/h
Visibility Definition
km
Stn Press Definition
kPa
Hmdx Definition


Wind Chill Definition


Weather Definition


00:00 9.9 2.5 60 LegendMM 32 8 LegendMM 98.94     LegendNANA
01:00 9.0 4.6 74 LegendMM 31 5 LegendMM 98.99     LegendNANA
02:00 8.1 6.2 87 LegendMM 31 8 LegendMM 99.04     LegendNANA
03:00 6.7 2.9 77 LegendMM 36 5 LegendMM 99.09     LegendNANA
04:00 7.6 3.0 72 LegendMM 32 8 LegendMM 99.15     LegendNANA
05:00 7.7 3.8 76 LegendMM 31 6 LegendMM 99.20     LegendNANA
06:00 7.8 5.0 83 LegendMM 34 9 LegendMM 99.23     LegendNANA
07:00 8.0 5.5 84 LegendMM 31 11 LegendMM 99.28     LegendNANA
08:00 7.7 5.2 84 LegendMM 36 13 LegendMM 99.33     LegendNANA
09:00 8.8 4.9 77 LegendMM 33 10 LegendMM 99.35     LegendNANA
10:00 9.6 4.9 72 LegendMM 34 11 LegendMM 99.37     LegendNANA
11:00 10.5 5.2 70 LegendMM 32 12 LegendMM 99.38     LegendNANA
12:00 11.0 5.3 68 LegendMM 31 15 LegendMM 99.39     LegendNANA
13:00 11.3 4.0 61 LegendMM 36 16 LegendMM 99.40     LegendNANA
14:00 12.8 5.6 61 LegendMM 31 16 LegendMM 99.38     LegendNANA
15:00 13.0 5.6 60 LegendMM 30 19 LegendMM 99.38     LegendNANA
16:00 12.2 6.3 67 LegendMM 36 10 LegendMM 99.42     LegendNANA
17:00 13.1 2.9 50 LegendMM 30 17 LegendMM 99.42     LegendNANA
18:00 13.4 1.5 44 LegendMM 34 11 LegendMM 99.44     LegendNANA
19:00 13.2 -1.2 37 LegendMM 3 12 LegendMM 99.47     LegendNANA
20:00 12.2 -0.1 43 LegendMM 3 7 LegendMM 99.51     LegendNANA
21:00 11.1 -0.6 44 LegendMM 3 10 LegendMM 99.56     LegendNANA
22:00 9.8 -1.7 45 LegendMM 4 5 LegendMM 99.61     LegendNANA
23:00 7.9 -2.9 47 LegendMM 33 4 LegendMM 99.67     LegendNANA

Notes on Data Quality.

Legend

  • E = Estimated
  • M = Missing
  • NA = Not Available*
  • [empty] = Indicates an unobserved value
Date modified: